Wind_Speed
24 23 25 24 22 21 21 19 17 17 16 14 14 15 13 11 10 8 8 11 12 12 13 13 12 12 12 12 11 10 10 8 9 11 10 8 9 9 8 9 12 14 16 17 16 13 7 3 4 6 9 11 11 11 13 15 15 15 14 13 12 10 9
24 26 27 24 21 21 20 17 16 16 15 14 14 14 12 12 10 11 11 15 16 14 13 13 13 13 13 13 14 13 13 11 11 11 10 8 9 9 10 12 14 14 16 18 19 18 12 7 3 2 7 10 10 11 14 16 16 16 15 13 11 9 9
28 28 27 23 21 20 20 19 18 17 16 16 15 13 13 13 12 14 16 18 17 15 14 14 14 14 13 13 13 13 12 12 11 11 12 11 10 9 10 13 15 16 16 15 16 18 13 9 7 5 8 8 8 11 14 17 17 14 13 12 11 11 12
30 28 26 24 23 23 22 22 20 18 17 18 18 17 16 15 14 16 19 18 17 16 16 15 15 14 13 13 13 12 12 13 13 13 14 15 15 14 11 11 14 15 15 15 17 18 13 10 9 6 8 10 10 12 15 18 18 15 13 13 14 15 15
29 28 27 25 25 24 23 22 20 18 18 18 19 19 17 16 16 17 18 18 17 17 16 14 13 13 13 12 12 12 12 14 15 15 16 17 18 19 17 13 12 13 17 21 21 20 19 19 15 9 10 12 9 10 15 17 17 16 14 13 13 15 15
28 28 27 26 24 23 24 23 21 19 19 18 19 18 17 17 17 18 18 18 18 17 16 15 14 14 14 13 13 13 13 14 15 16 17 17 17 18 20 19 16 13 16 20 21 22 23 23 19 13 13 13 10 11 14 15 15 15 14 12 11 11 12
28 27 26 25 23 24 25 24 22 21 20 20 19 19 18 17 18 19 19 18 18 16 17 17 15 14 14 15 15 15 15 16 17 17 17 16 16 16 17 19 19 17 14 16 20 24 25 23 21 18 14 12 12 14 14 14 16 15 13 12 9 8 10
26 26 25 23 24 25 25 23 23 22 21 20 19 19 18 18 18 19 19 19 19 18 18 17 16 16 17 17 17 17 18 18 18 18 17 16 14 14 15 17 18 19 17 14 16 19 21 22 22 23 19 12 8 8 9 12 15 15 15 14 8 6 8
23 24 24 23 23 23 22 22 23 22 21 20 19 18 18 19 19 20 20 19 18 18 18 17 17 17 17 17 17 18 18 17 18 18 17 16 15 14 14 15 16 17 17 17 15 13 14 18 23 25 22 16 11 6 4 7 8 10 15 14 9 6 8
21 22 22 22 22 21 21 23 23 22 21 19 18 19 19 20 21 21 21 20 19 18 18 17 17 17 17 17 17 17 16 16 17 17 17 16 16 16 15 14 14 14 15 18 18 18 17 16 19 22 20 18 18 12 3 3 4 5 11 12 10 9 7
20 20 20 21 21 21 22 23 23 22 20 19 19 20 20 20 19 19 20 20 20 19 18 17 17 17 17 18 17 16 16 16 17 17 16 16 15 15 15 15 14 14 14 16 18 19 20 17 14 13 14 20 24 20 11 6 3 5 10 10 9 11 10
19 18 18 20 20 20 22 23 23 22 20 19 20 21 20 19 19 19 19 18 18 18 17 17 16 16 17 16 15 14 14 15 16 16 15 14 13 12 13 14 14 14 13 15 19 19 18 16 15 14 12 20 23 24 21 14 5 5 11 10 9 10 11
19 19 18 19 20 20 22 22 22 22 21 20 20 20 19 19 19 19 17 17 18 18 16 15 15 15 15 14 13 14 13 12 13 13 11 11 11 11 13 14 13 12 12 14 16 16 16 16 15 15 13 19 21 21 22 18 9 7 11 12 11 10 11
18 19 18 18 18 19 20 21 21 21 20 20 19 19 19 18 18 17 16 17 18 17 15 14 13 13 14 13 10 11 12 11 11 10 10 11 10 10 11 12 11 10 10 11 11 11 11 11 14 17 16 17 19 16 15 17 15 11 10 11 10 10 11
18 18 18 18 16 17 19 19 19 20 20 20 19 18 18 16 15 15 15 16 16 15 14 14 12 12 13 12 9 9 11 12 11 9 9 10 10 9 9 9 8 8 9 10 10 10 9 9 14 20 20 17 17 14 13 16 17 13 11 11 10 10 11
15 16 17 16 14 14 17 18 17 18 18 18 18 17 16 15 15 14 13 14 14 13 13 13 11 10 11 10 8 10 12 12 10 7 8 9 9 9 9 8 8 8 9 10 10 10 10 11 14 17 18 17 15 12 11 12 14 14 13 11 10 10 9
11 14 15 13 10 11 15 17 16 16 17 17 17 16 15 15 14 13 13 12 12 12 12 11 10 10 11 10 9 9 10 10 8 7 8 10 11 10 10 10 8 8 8 8 9 9 9 11 12 13 13 13 12 12 10 9 12 14 13 12 11 8 5
9 11 11 10 8 8 13 15 14 15 16 16 17 15 15 15 14 13 13 12 11 11 11 10 9 11 11 10 9 8 7 8 7 4 5 8 9 9 9 10 9 9 8 6 7 7 8 10 13 13 11 10 10 12 12 10 11 13 13 14 12 6 4
11 8 7 7 6 7 10 12 12 13 14 16 17 15 15 15 13 12 13 12 12 13 13 13 11 12 10 7 7 6 4 5 5 4 4 4 5 6 6 8 10 10 9 7 5 5 6 9 11 12 11 10 10 10 11 12 12 12 12 12 9 5 4
11 8 6 6 6 6 8 9 11 13 13 16 17 14 14 15 13 12 13 13 14 15 15 14 12 11 10 6 4 3 3 4 5 4 5 5 5 5 6 7 8 8 9 8 5 4 5 5 8 10 9 8 8 9 11 11 11 11 11 10 8 6 4
12 10 8 8 9 9 9 11 13 13 14 15 16 14 14 15 13 12 12 13 13 14 14 13 10 9 9 6 3 2 4 4 4 5 6 7 6 6 7 7 7 8 9 8 6 6 5 4 3 6 8 6 5 7 9 9 9 9 8 7 7 7 6
13 13 10 9 11 11 12 12 11 12 13 15 17 16 15 16 14 13 12 12 12 13 13 12 10 9 8 7 4 3 3 3 3 5 6 6 6 7 7 6 6 7 7 5 5 6 6 5 4 4 6 6 5 6 6 6 6 6 6 6 6 5 6
13 15 14 13 12 11 12 14 12 11 12 12 16 18 17 16 16 14 12 11 11 12 12 11 10 9 8 7 5 3 2 1 0 3 4 5 6 7 7 7 7 7 6 5 5 6 6 6 5 3 2 3 4 5 5 5 5 4 5 7 6 5 7
12 15 17 18 17 15 17 20 20 18 14 12 14 18 18 17 17 15 13 11 11 11 11 11 11 10 8 7 5 4 3 3 5 5 5 6 8 8 8 8 8 8 6 5 5 5 4 4 3 3 3 4 4 4 4 6 6 5 6 7 7 6 7
11 12 16 18 18 18 19 24 27 22 16 13 14 17 18 17 17 15 13 11 10 11 12 13 12 10 8 7 6 7 8 9 10 9 8 8 8 9 10 10 10 8 6 5 5 4 4 2 1 3 3 4 5 4 4 4 5 5 6 7 7 7 7
14 12 13 16 18 18 18 23 24 18 14 15 16 15 16 15 15 13 13 12 11 11 13 14 11 8 8 9 10 11 11 10 10 10 9 8 8 10 12 12 11 10 8 6 5 5 4 4 3 3 4 4 5 5 5 4 4 4 5 5 6 6 5
16 14 13 15 19 19 17 20 19 15 14 16 15 14 13 12 12 12 11 11 11 11 12 11 10 9 11 13 13 11 11 11 11 11 11 11 11 11 13 14 13 11 9 7 7 6 5 5 6 6 6 5 4 4 3 3 3 4 4 3 3 4 3
17 16 16 16 18 19 18 19 18 15 15 15 15 15 12 9 11 12 12 12 12 12 12 11 11 13 15 15 13 13 14 14 14 13 12 11 11 12 14 14 13 12 10 8 8 7 6 6 7 8 8 8 8 6 5 5 4 3 3 2 2 2 2
15 17 18 16 17 18 19 20 18 16 14 13 13 13 13 13 13 12 13 13 13 14 14 14 15 17 17 16 14 15 16 15 14 13 11 10 10 12 13 12 12 12 10 8 8 6 5 5 5 6 7 8 9 8 7 7 6 4 2 2 2 1 2
9 12 15 14 13 14 15 16 15 14 13 13 11 13 16 17 16 15 15 16 15 15 16 16 17 17 17 16 15 14 15 15 14 13 13 11 10 11 12 11 10 10 9 9 9 7 7 7 6 5 5 6 6 6 6 6 4 3 1 1 1 2 4
4 6 9 10 9 8 9 11 13 13 14 14 15 16 18 17 16 16 16 16 15 16 16 16 17 17 17 17 14 12 14 18 18 15 14 13 11 11 11 10 8 7 8 8 8 8 8 8 7 8 6 6 6 6 6 5 3 3 2 2 3 4 8
6 6 7 9 10 9 10 11 12 13 13 14 16 17 17 16 16 16 15 13 14 15 15 16 17 17 18 17 14 13 16 19 18 16 15 14 14 12 11 9 7 6 6 7 7 8 9 7 7 9 8 7 8 8 7 6 4 3 3 4 7 8 10
9 6 7 10 10 11 12 12 12 14 15 15 16 17 17 17 16 14 12 11 12 13 13 15 17 17 17 18 15 13 17 19 18 16 16 15 15 14 12 11 9 7 7 8 7 8 9 7 6 8 8 7 8 7 6 4 2 3 5 8 9 9 9
15 10 4 4 5 6 9 12 12 14 15 16 17 17 19 21 20 17 15 13 12 12 11 12 14 15 16 16 14 13 14 17 18 17 17 16 16 15 14 13 12 10 9 8 7 7 7 6 5 5 4 3 3 3 1 1 4 7 9 9 8 7 7
17 15 12 7 5 3 1 6 11 12 12 13 14 14 17 22 23 21 19 16 13 12 11 11 11 13 13 14 13 12 12 13 16 20 22 20 18 17 17 15 14 12 10 8 7 6 5 5 5 5 3 2 2 3 5 6 8 9 9 6 5 5 6
16 17 16 14 11 9 6 4 4 5 5 6 7 6 11 21 25 23 21 19 16 14 13 12 12 13 12 12 12 13 12 10 11 19 24 23 20 18 18 17 15 13 9 7 5 4 4 4 4 4 3 3 5 5 5 5 4 4 4 3 3 4 5
16 17 17 16 15 13 10 10 9 7 5 6 6 4 7 14 18 19 19 19 18 18 17 16 15 14 14 13 12 12 12 9 7 13 21 23 20 19 19 18 15 12 9 7 6 5 4 3 3 3 2 3 3 2 0 2 3 3 3 4 4 4 5
Wind_Direction
156 152 150 148 147 145 136 132 131 129 129 129 129 131 132 135 133 122 133 143 137 130 123 113 108 106 106 106 108 113 117 121 122 118 120 124 117 114 120 115 112 125 141 146 140 131 124 89 59 82 96 102 103 99 100 104 104 102 103 108 112 112 111
155 150 148 146 147 145 137 132 131 130 130 129 133 137 140 146 129 102 124 141 130 123 122 116 113 109 107 107 106 107 107 109 108 104 106 109 108 114 118 115 115 117 124 135 135 125 122 131 120 92 111 109 105 106 106 105 103 100 102 105 106 105 100
146 147 146 145 147 146 140 135 134 133 134 134 136 138 139 142 125 104 117 130 123 114 111 111 115 112 108 110 111 110 109 109 109 101 95 89 92 112 128 127 124 122 119 124 131 129 125 125 126 143 150 136 118 116 117 117 113 106 104 105 104 102 98
147 147 147 147 147 145 140 137 136 135 134 134 132 131 133 134 124 112 114 119 116 110 107 109 113 111 108 111 114 116 109 103 106 103 91 83 86 97 113 131 134 133 135 137 141 141 136 132 132 140 149 143 135 134 131 126 125 116 101 97 100 99 97
152 151 151 151 148 145 142 141 141 136 131 132 132 131 132 132 127 119 113 113 113 114 115 115 114 113 111 110 111 116 111 101 100 96 86 81 85 87 85 100 124 136 143 145 149 149 144 144 144 143 152 149 138 141 140 130 128 123 105 93 94 95 94
156 155 154 153 152 150 149 148 147 142 137 135 136 134 133 134 132 124 115 111 112 117 120 117 116 115 113 110 107 111 110 103 99 92 85 82 83 83 81 89 104 118 136 147 152 149 146 148 146 144 156 157 148 146 145 136 128 122 111 99 90 86 85
159 159 157 155 156 156 153 150 148 147 144 140 139 137 136 136 134 129 121 112 110 118 123 121 121 118 114 109 105 105 105 104 100 92 85 85 87 87 85 88 93 96 118 147 155 150 147 148 150 156 159 151 150 153 148 141 132 122 114 109 99 81 79
160 161 160 158 159 157 153 150 149 149 146 143 141 138 137 135 134 134 129 118 112 116 121 120 118 115 109 104 100 99 100 102 99 92 89 90 91 91 89 90 91 89 96 122 148 158 161 158 154 158 160 148 144 151 138 133 130 125 123 118 106 89 87
161 161 161 162 161 157 153 152 151 150 148 147 143 140 138 134 131 130 128 124 119 117 118 117 116 115 110 107 105 102 100 102 99 95 95 96 96 97 95 94 95 89 85 92 106 126 152 165 162 160 162 154 139 131 114 121 124 129 136 129 117 110 98
163 164 164 165 162 156 155 154 151 150 150 148 145 142 138 134 130 127 127 129 126 123 122 122 122 122 119 116 114 111 109 110 107 102 100 99 98 98 96 97 95 88 84 84 85 89 100 128 153 162 173 167 147 137 122 124 124 138 148 140 130 136 125
166 167 168 164 159 157 158 155 152 152 152 149 145 141 137 135 134 134 134 132 128 124 122 121 123 122 120 116 115 115 115 116 114 110 106 101 99 97 92 91 91 85 82 79 78 83 88 92 102 125 164 171 152 140 133 128 117 133 149 148 139 144 145
168 169 167 160 158 159 158 156 155 153 152 149 146 142 141 141 141 139 137 134 130 128 125 124 124 121 120 120 120 120 117 115 113 109 107 102 101 102 95 88 87 82 79 80 79 78 81 84 77 78 129 160 151 139 133 125 105 122 135 143 147 148 150
169 168 163 160 160 160 158 157 157 155 153 151 147 146 147 145 144 142 139 138 136 132 131 131 129 126 125 126 127 125 119 115 113 108 105 101 97 102 100 92 88 83 83 86 82 76 79 88 85 81 114 143 139 135 133 121 107 115 124 133 144 151 161
161 163 162 160 159 159 160 159 157 155 154 154 152 152 150 147 147 145 142 142 140 136 136 134 133 132 131 128 126 133 131 120 117 116 112 107 100 101 105 100 90 83 88 89 80 78 84 92 99 102 115 132 133 138 143 130 123 123 126 136 142 147 160
150 154 158 160 158 157 159 160 160 158 157 158 158 155 152 151 152 149 146 146 142 140 140 135 133 132 132 129 117 123 132 122 114 116 116 116 109 104 109 105 95 90 89 90 85 80 82 97 113 113 114 124 132 143 154 145 138 137 142 150 156 156 160
141 143 148 155 159 160 161 162 163 161 161 162 162 160 157 156 157 155 154 153 146 144 141 136 136 132 129 130 116 110 120 119 113 107 114 129 125 110 108 103 102 106 99 93 92 84 77 89 109 115 115 117 119 127 145 154 152 153 155 156 160 164 170
131 136 138 142 148 158 165 167 166 164 165 167 166 166 165 162 165 164 162 159 151 147 144 137 137 136 133 138 138 127 123 124 122 105 109 130 131 120 117 113 106 108 106 95 91 88 74 75 92 112 123 122 112 107 119 149 165 166 166 164 160 155 157
150 140 135 128 125 147 162 165 167 169 172 173 173 175 175 171 171 171 168 166 159 154 153 146 140 143 147 152 153 145 132 136 143 130 120 131 133 128 127 131 132 127 121 105 91 95 87 76 84 102 115 119 113 107 106 121 150 161 161 166 169 160 139
180 159 141 123 114 140 155 159 169 177 182 182 181 182 180 177 178 177 173 171 168 164 159 151 142 142 150 156 158 158 158 169 181 191 186 172 161 157 152 150 154 153 144 128 109 111 105 88 89 98 106 109 112 116 112 110 124 133 135 145 153 144 147
189 182 179 165 147 145 153 165 181 190 193 188 188 191 183 179 183 182 177 173 169 165 160 154 147 144 143 131 131 179 214 212 215 220 221 227 215 197 193 186 180 173 158 145 146 161 151 121 102 101 110 114 113 120 118 113 118 121 121 123 109 94 113
185 192 205 200 194 187 180 184 188 195 204 196 192 195 187 182 184 179 177 178 173 169 168 164 159 161 162 146 135 216 235 236 241 234 230 236 234 221 214 206 197 184 167 153 160 179 185 182 143 108 113 126 135 132 122 117 119 117 116 117 103 89 96
174 190 202 198 199 200 196 199 191 182 193 197 197 200 193 186 186 183 180 181 181 183 183 174 165 168 176 170 167 212 246 275 267 234 226 224 208 199 199 189 173 168 162 152 162 174 179 188 182 128 116 124 137 144 137 122 112 105 104 109 114 109 97
176 189 191 183 191 205 212 223 216 182 176 188 196 198 194 188 188 188 183 177 177 180 181 179 174 170 173 172 169 203 254 317 223 188 190 179 163 164 173 165 145 139 144 154 164 168 172 178 180 172 159 147 140 144 147 135 116 110 111 107 115 123 107
193 200 196 190 191 200 207 215 214 202 200 209 202 196 194 190 186 184 182 179 175 174 176 180 180 176 180 181 176 184 174 128 114 119 131 144 144 142 149 147 137 132 141 154 157 161 172 184 192 200 204 192 172 154 143 136 133 138 134 119 114 118 116
183 194 199 199 194 191 196 202 203 204 211 213 201 194 192 187 182 181 186 187 178 171 175 179 179 181 189 188 179 171 153 130 119 114 116 130 141 140 138 137 136 138 143 142 134 129 130 129 174 203 201 199 193 183 166 152 146 146 143 135 125 118 117
167 171 184 199 198 189 187 191 192 193 196 195 193 190 186 184 182 183 189 193 186 177 178 181 183 190 189 175 164 158 149 135 126 121 121 132 148 150 144 141 144 144 144 140 129 116 99 84 101 151 169 185 195 199 199 193 183 172 163 155 144 128 121
163 164 170 191 200 197 191 184 180 175 175 179 180 176 173 177 179 178 184 192 190 186 187 186 186 187 175 162 154 152 152 144 135 130 129 132 142 151 154 155 153 147 145 141 130 116 86 74 102 124 130 135 142 153 162 169 184 188 184 184 173 146 131
157 163 169 180 190 195 193 183 175 172 171 172 171 168 174 188 184 178 184 195 197 196 196 190 181 174 166 157 147 144 147 146 141 140 139 135 135 145 158 164 157 148 149 144 129 114 90 80 97 106 103 99 92 91 99 101 107 129 132 132 130 121 107
154 160 165 166 170 181 186 182 180 178 177 180 183 187 202 213 204 190 191 199 199 192 187 179 172 169 165 157 146 142 147 153 153 148 143 139 137 142 154 162 153 147 152 149 134 119 103 103 112 103 94 91 83 80 90 97 97 102 103 84 63 40 8
149 154 159 158 162 172 176 176 180 183 185 189 191 193 200 205 203 196 194 196 191 180 174 169 167 168 168 165 157 151 156 162 161 153 144 143 144 142 145 151 147 144 151 151 145 140 132 136 150 145 114 104 102 98 100 101 98 100 103 42 17 354 348
164 156 154 153 156 169 175 178 185 192 195 193 187 183 185 186 187 187 187 189 186 178 173 170 171 173 174 173 169 166 166 165 162 159 155 153 157 153 147 149 149 147 152 155 159 164 158 149 157 167 158 139 134 125 108 97 84 85 87 38 17 1 351
143 167 179 168 159 167 180 185 191 194 191 184 177 176 175 172 173 177 182 186 188 186 180 175 177 179 177 178 175 168 170 171 166 164 163 158 159 163 161 157 156 154 151 153 163 171 167 153 142 154 161 148 134 125 112 102 91 77 45 8 357 350 349
70 121 173 176 167 171 176 174 173 178 181 178 172 174 180 178 174 176 183 184 185 190 187 180 179 180 180 183 179 168 172 180 176 170 169 166 163 167 169 161 155 154 150 151 163 173 172 162 139 138 143 132 121 120 116 104 71 8 346 341 341 343 348
30 38 61 114 130 159 180 181 180 183 187 187 183 184 185 183 180 182 185 184 181 186 191 189 186 184 184 187 186 174 175 187 189 182 177 176 175 173 171 166 158 155 154 154 160 172 180 182 172 161 159 137 119 121 127 306 309 314 318 323 329 339 346
15 14 11 14 23 28 147 185 196 202 199 194 196 202 196 186 183 183 183 184 186 189 193 200 202 197 192 192 193 186 180 186 193 190 183 180 182 179 173 170 163 157 156 155 152 166 190 203 210 218 226 246 287 312 314 308 305 309 316 324 332 341 347
360 3 3 0 353 341 325 301 261 239 219 197 202 219 200 186 182 181 182 186 193 199 201 203 209 212 207 200 197 194 191 187 191 193 189 184 184 183 176 171 166 159 158 160 163 178 198 210 224 237 251 277 299 310 313 314 320 328 342 357 354 357 19
342 348 352 356 354 343 319 298 288 283 275 255 252 253 206 187 182 181 183 186 191 200 206 205 205 213 216 211 204 197 195 189 178 185 188 186 187 187 179 170 165 161 162 169 176 187 201 211 230 249 271 294 303 306 93 84 74 70 55 39 33 51 63
Height
810 812 814 815 816 817 817 818 819 821 822 822 824 824 825 826 828 828 829 830 830 831 831 832 833 833 834 835 835 836 836 837 837 838 838 838 838 839 839 840 841 842 842 843 844 845 848 852 853 851 851 852 852 852 852 853 853 854 854 855 855 856 856
810 811 813 814 816 816 817 818 820 821 822 823 824 825 826 827 828 829 829 830 831 832 832 833 833 834 835 836 836 837 837 838 838 839 839 839 839 839 840 841 842 843 843 845 846 845 847 851 854 854 853 853 854 854 855 855 856 856 856 856 857 857 857
809 811 813 814 815 815 816 818 820 821 823 824 825 826 827 828 829 830 829 831 832 832 833 834 835 836 836 837 837 838 838 838 839 839 839 840 840 840 840 841 842 842 843 845 847 847 847 849 852 854 854 854 855 856 857 858 858 858 858 858 858 858 858
808 810 812 813 814 815 816 818 820 822 823 824 825 826 828 828 829 830 831 832 833 833 834 835 836 837 837 838 838 839 839 839 839 840 840 840 840 840 840 841 841 842 842 844 846 846 847 848 851 853 855 855 856 858 859 860 860 860 860 860 860 860 860
806 808 810 812 813 815 816 818 820 822 824 825 826 827 828 829 830 831 831 832 833 834 835 836 837 838 838 839 839 839 840 840 840 840 840 840 840 840 841 841 841 841 842 843 845 845 846 847 849 852 855 856 857 858 860 861 862 862 861 861 861 861 861
806 808 810 811 813 814 816 818 820 822 824 826 827 828 829 829 830 831 832 833 834 835 837 838 838 839 839 839 840 840 840 841 841 841 841 841 841 841 842 842 842 842 843 844 845 846 847 848 850 852 854 856 857 858 860 861 862 863 863 862 862 862 862
806 808 810 811 813 815 816 818 820 822 825 826 827 828 829 830 831 832 833 834 835 837 838 839 839 840 840 840 841 841 841 842 842 842 842 842 842 843 843 843 844 844 845 845 846 847 847 849 850 851 853 856 858 858 859 861 861 862 863 863 863 863 863
807 808 810 812 814 815 817 818 821 823 825 827 828 829 830 831 832 832 834 835 837 838 839 840 840 841 841 841 842 842 843 843 843 843 844 844 844 844 845 845 845 846 846 847 847 848 848 848 849 849 850 853 857 859 859 860 861 861 863 864 864 864 864
808 810 811 813 815 816 817 819 821 823 825 827 828 829 830 832 833 834 835 837 838 840 841 841 841 841 842 842 843 844 844 845 845 845 845 845 845 846 846 847 847 847 848 848 848 849 849 848 849 849 849 850 853 858 860 861 861 862 863 863 865 865 865
810 812 813 814 816 817 818 820 822 824 825 827 829 830 831 833 834 835 836 838 840 840 841 842 842 842 843 843 844 845 845 846 846 846 846 847 847 847 848 848 848 849 849 849 849 849 849 849 849 850 851 851 850 853 859 862 862 863 863 863 864 866 866
811 813 814 816 817 818 819 820 822 824 826 828 829 830 832 834 836 837 838 839 840 841 842 842 843 843 844 844 845 846 846 847 847 848 848 848 848 849 849 849 849 849 849 849 849 850 849 850 850 850 851 852 851 851 855 860 862 863 863 863 864 865 866
811 814 815 816 817 818 820 821 822 825 827 828 830 831 833 835 836 838 839 840 841 841 842 842 843 844 844 845 846 847 847 848 848 849 849 850 850 850 850 850 850 850 850 850 850 851 851 850 851 850 850 851 852 852 853 857 860 862 863 863 864 865 865
811 813 815 816 818 819 820 822 823 825 827 829 831 831 833 835 837 838 839 840 841 841 842 842 843 844 845 846 847 847 848 849 849 850 850 851 851 852 852 851 852 852 852 852 851 852 852 852 852 852 851 852 853 853 854 856 859 862 863 863 864 865 865
811 813 815 817 819 820 821 823 824 826 828 829 831 832 834 835 837 838 839 840 841 841 842 842 843 844 845 846 847 848 849 849 850 850 851 852 852 853 853 853 853 853 853 853 853 853 854 854 854 854 853 854 854 855 856 857 859 861 862 863 863 864 865
811 813 816 818 820 821 822 824 825 826 828 829 831 832 834 835 837 839 840 840 841 841 842 843 844 845 846 847 848 849 849 850 851 851 852 852 853 853 853 854 854 854 854 854 855 855 855 855 855 855 855 856 856 857 857 857 858 860 861 862 863 864 865
812 814 816 818 821 822 823 825 826 827 828 830 831 833 834 835 837 839 840 841 841 841 842 843 845 845 846 847 848 849 849 850 851 852 852 852 853 853 853 854 854 855 855 855 855 856 856 856 856 856 856 857 857 858 858 858 859 860 861 862 863 864 864
814 815 816 818 821 823 824 825 826 827 828 830 832 833 834 835 837 838 839 840 841 842 843 844 845 846 847 847 848 848 849 850 851 851 852 852 853 853 853 854 854 855 855 855 855 855 856 856 856 856 857 858 858 859 860 860 860 861 862 863 864 864 864
815 816 817 819 821 823 825 825 826 827 829 831 832 833 834 835 836 838 839 840 841 842 843 844 845 846 847 847 848 848 849 850 851 851 852 853 853 853 853 854 854 854 854 855 855 855 855 856 856 856 857 858 859 860 860 861 861 862 863 863 864 865 865
815 816 818 819 821 824 825 825 827 829 830 831 832 833 833 835 836 837 838 839 840 841 842 843 844 845 846 847 847 848 849 850 851 851 852 852 853 853 853 853 853 853 854 854 855 855 855 856 856 857 858 859 859 860 860 861 862 862 863 864 865 865 865
816 817 818 821 823 824 824 826 828 829 830 830 831 832 833 834 835 836 837 838 838 839 840 841 842 844 845 845 847 847 848 848 849 850 851 852 852 853 853 852 853 853 853 853 854 854 855 855 856 857 858 859 859 860 860 861 861 862 863 864 865 865 865
815 817 819 822 824 824 825 828 829 829 829 830 830 831 832 833 833 835 836 837 837 838 839 840 842 843 844 844 845 846 847 847 848 848 849 850 851 851 851 851 852 852 853 853 853 854 854 855 855 857 858 858 859 860 860 861 861 862 862 863 864 864 865
813 815 817 820 823 824 826 828 828 828 828 829 829 830 830 831 832 833 835 835 837 837 838 840 841 842 843 842 843 845 846 845 846 846 847 847 849 849 850 851 851 852 852 853 853 854 854 855 856 857 857 858 859 860 860 861 861 862 862 862 863 863 864
811 811 813 816 819 821 825 828 828 827 827 827 827 828 828 829 830 832 833 834 836 837 837 839 840 841 842 841 842 844 844 844 844 844 845 846 847 848 849 850 851 851 852 853 853 854 854 855 856 857 858 858 859 859 860 860 861 862 862 862 863 863 863
810 810 810 813 816 819 822 825 827 826 825 825 826 825 826 827 828 830 832 833 835 836 837 838 839 840 841 841 841 842 842 842 843 843 843 844 846 847 848 849 850 850 851 852 852 853 853 854 855 856 857 858 858 859 859 860 860 861 862 862 862 863 863
811 811 812 813 816 819 822 823 825 825 824 824 825 824 825 826 827 829 830 832 833 834 836 837 838 839 840 840 840 841 841 841 842 842 843 844 845 846 847 848 849 850 851 851 852 852 853 854 854 855 856 857 858 858 858 859 859 860 861 861 862 862 863
811 812 812 814 816 820 823 823 824 824 824 824 824 825 826 827 828 829 829 830 832 833 834 836 837 838 838 839 839 840 840 841 841 842 842 843 844 846 847 848 849 849 851 851 851 852 852 853 853 854 854 855 856 857 857 858 859 859 860 860 861 862 862
810 811 812 813 815 818 822 823 824 823 823 823 824 826 827 828 828 829 829 830 831 832 833 835 835 836 837 838 839 840 840 841 841 841 842 843 844 845 847 848 848 849 850 850 851 851 852 852 852 853 854 854 855 856 857 857 858 859 860 860 861 861 862
811 812 813 814 816 818 820 822 822 822 822 823 824 825 827 828 828 828 829 830 830 831 832 833 834 835 836 837 839 839 840 840 841 842 842 843 843 845 846 847 847 848 849 849 850 851 851 851 852 852 853 854 855 856 856 857 858 858 859 860 860 861 861
812 813 814 816 817 819 819 820 820 820 821 822 823 824 825 827 827 827 827 828 829 830 831 832 833 834 835 837 838 839 839 840 841 841 842 843 844 845 846 846 847 848 848 849 849 850 850 851 851 852 853 854 855 855 856 857 858 858 859 859 860 860 861
813 813 814 815 816 817 818 818 819 819 819 821 822 823 824 826 827 826 826 827 828 828 829 831 832 834 835 836 837 838 838 839 840 841 843 844 844 845 846 847 847 848 848 849 850 850 851 851 851 852 853 854 854 855 856 857 857 858 859 859 859 860 860
814 815 814 814 815 816 817 818 818 818 819 820 821 822 823 825 825 826 826 827 827 828 829 830 831 833 834 836 837 838 838 839 840 841 842 844 845 845 846 847 848 848 849 849 850 850 851 851 852 852 853 853 854 855 856 857 857 858 858 859 859 859 859
816 816 816 816 816 817 818 819 819 820 820 821 821 822 823 824 824 825 826 826 827 827 828 829 830 831 833 834 836 837 838 838 839 840 841 843 844 845 846 847 847 848 848 849 850 850 851 851 851 852 852 852 853 854 855 856 857 857 858 858 858 858 858
818 817 817 817 817 818 819 819 820 820 821 821 822 822 823 824 824 825 825 826 827 828 828 829 830 831 832 833 835 837 837 838 839 840 841 842 843 844 845 846 847 847 848 849 849 850 850 851 851 852 852 852 853 854 854 855 856 856 856 857 857 857 857
818 818 818 819 819 819 819 820 820 820 821 821 821 822 822 823 823 824 824 825 826 827 828 829 830 830 831 832 834 835 837 837 838 839 840 842 843 843 844 845 846 847 848 849 849 850 850 851 852 852 852 853 853 854 854 855 855 855 855 856 856 856 856
818 818 818 818 819 819 819 820 821 821 821 821 821 821 821 821 822 822 823 824 825 826 827 829 829 830 831 832 833 834 836 836 837 838 839 841 842 842 844 845 846 847 848 849 849 850 850 851 851 852 852 852 853 853 854 854 854 854 854 855 855 856 856
818 819 818 817 817 818 818 819 820 820 820 821 821 821 821 820 821 821 822 823 823 824 826 827 828 830 830 831 833 834 835 835 836 837 838 839 841 842 843 845 845 847 848 849 849 850 850 850 851 851 851 852 852 852 853 853 853 853 854 854 855 855 855
819 818 818 817 817 817 818 819 819 819 820 820 821 821 821 821 821 821 822 822 822 823 824 825 827 828 829 831 832 833 834 835 835 836 837 838 840 841 842 844 845 847 848 848 849 850 850 850 851 851 851 851 851 852 852 852 853 853 854 854 855 855 855